Find PRAETORIAN SDA_519

NORAD ID: 100077 Int'l Des: 2026-163U Country: USA operational

Aktuelle Ansicht

3D-Globus wird geladen...

About PRAETORIAN SDA_519

PRAETORIAN SDA_519 (NORAD 100077) is a satellite of USA.

Nächste Überflüge

Passes for default location (London). Set your location on the main map for personalized predictions.

Höhenverlauf

Loading altitude history...

Zweizeiliger Elementsatz

1 A0077U 26206.56494564 .00000133 00000-0 10525-3 0 9996
2 A0077 81.4865 301.7589 0013816 186.5819 173.5160 13.85566912 1211
Epoch: 25. Juli 2026 • Age: 12 hours

Aktueller Status

Höhe 968.8 km
Apogäum / Perigäum N/A
Geschwindigkeit 7.36 km/s
Subsatellitenpunkt -48.12°S, 33.85°W
Typ other

Most Searched